Weather History for Carmi, IL

Change the Weather History Date:

Friday, June 28, 2013

  Actual Average (KEVV) Record (KEVV)
Temperature  
Mean Temperature 82 °F 78 °F  
Max Temperature 93 °F 88 °F 107 °F (2012)
Min Temperature 70 °F 67 °F 55 °F (1950)
Degree Days  
Heating Degree Days 0 0  
Month to date heating degree days 4  
Since 1 June heating degree days 4  
Since 1 July heating degree days 4545  
Cooling Degree Days 16 13  
Month to date cooling degree days 273  
Year to date cooling degree days 408  
Since 1 June cooling degree days 273  
Growing Degree Days 32 (Base 50)    
Moisture  
Dew Point 63 °F    
Average Humidity 56    
Maximum Humidity 83    
Minimum Humidity 31    
Precipitation  
Precipitation 0.00 in 0.11 in 2.27 in (1977)
Month to date precipitation 3.56  
Year to date precipitation 23.80  
Snow  
Snow 0.00 in 0.00 in - ()
Month to date snowfall 0.0  
Since 1 June snowfall 0.0  
Since 1 July snowfall 11.8  
Snow Depth -    
Sea Level Pressure  
Sea Level Pressure 29.74 in    
Wind  
Wind Speed 9 mph (WNW)    
Max Wind Speed 18 mph    
Max Gust Speed 25 mph    
Visibility 10 miles    
Events Rain    
T = Trace of Precipitation, MM = Missing Value Source: NWS Daily Summary

Daily Weather History Graph

Daily Weather History Graph

Search for Another Location

Airport:

Trip Planner

Search our weather history database for the weather conditions in past years. The results will help you decide how hot, cold, wet, or windy it might be!

Date:

Astronomy

Jun. 28, 2013 Rise Set
Actual Time 5:32 AM CDT 8:19 PM CDT
Civil Twilight 5:00 AM CDT 8:50 PM CDT
Nautical Twilight 4:21 AM CDT 9:30 PM CDT
Astronomical Twilight 3:36 AM CDT 10:15 PM CDT
Moon 11:54 PM CDT (6/28) 11:33 AM CDT (6/28)
Length of Visible Light 15h 50m
Length of Day
14h 47m
Waning Gibbous, 66% of the Moon is Illuminated
Jun 28
Waning Gibbous
Jun 29
Last Quarter
Jul 8
New
Jul 15
First Quarter
Jul 22
Full

Hourly Weather History & Observations

Time (CDT) Temp. Heat Index Dew Point Humidity Pressure Visibility Wind Dir Wind Speed Gust Speed Precip Events Conditions
12:15 AM 77.5 °F - 68.4 °F 73% 29.82 in 10.0 mi WNW 8.1 mph - N/A   Clear
12:35 AM 76.8 °F - 68.4 °F 75% 29.82 in 10.0 mi WNW 6.9 mph - N/A   Clear
12:55 AM 77.0 °F - 68.0 °F 74% 29.82 in 10.0 mi West 6.9 mph - N/A   Clear
1:35 AM 78.1 °F - 68.0 °F 71% 29.81 in 7.0 mi WNW 6.9 mph - N/A   Overcast
1:55 AM 77.0 °F - 68.5 °F 75% 29.81 in 7.0 mi WNW 5.8 mph - N/A   Mostly Cloudy
2:15 AM 77.2 °F - 69.1 °F 76% 29.81 in 10.0 mi West 5.8 mph - N/A   Mostly Cloudy
2:35 AM 77.0 °F - 69.3 °F 77% 29.81 in 10.0 mi WNW 5.8 mph - N/A   Mostly Cloudy
2:55 AM 76.3 °F - 69.1 °F 78% 29.80 in 10.0 mi WNW 5.8 mph - N/A   Scattered Clouds
3:15 AM 76.1 °F - 69.3 °F 79% 29.80 in 10.0 mi WNW 6.9 mph - N/A   Scattered Clouds
3:35 AM 75.2 °F - 69.3 °F 82% 29.79 in 10.0 mi WNW 5.8 mph - N/A   Scattered Clouds
3:55 AM 75.2 °F - 69.8 °F 83% 29.77 in 10.0 mi WNW 4.6 mph - N/A   Scattered Clouds
4:15 AM 75.2 °F - 69.8 °F 83% 29.78 in 10.0 mi West 6.9 mph - N/A   Scattered Clouds
4:35 AM 76.1 °F - 69.8 °F 81% 29.77 in 10.0 mi WNW 5.8 mph - N/A   Clear
4:55 AM 75.6 °F - 69.8 °F 82% 29.77 in 10.0 mi West 5.8 mph - N/A   Clear
5:15 AM 75.7 °F - 69.8 °F 82% 29.77 in 10.0 mi WNW 5.8 mph - N/A   Scattered Clouds
5:35 AM 76.1 °F - 69.8 °F 81% 29.79 in 10.0 mi WNW 8.1 mph - N/A   Scattered Clouds
5:55 AM 76.5 °F - 70.0 °F 80% 29.79 in 10.0 mi WNW 8.1 mph - N/A Rain Light Rain
6:15 AM 75.7 °F - 70.3 °F 83% 29.79 in 10.0 mi WNW 5.8 mph - N/A Rain Light Rain
6:35 AM 76.1 °F - 68.7 °F 78% 29.78 in 10.0 mi WNW 5.8 mph - N/A   Mostly Cloudy
6:55 AM 76.3 °F - 67.5 °F 74% 29.77 in 10.0 mi West 5.8 mph - N/A   Overcast
7:55 AM 77.9 °F - 67.3 °F 70% 29.78 in 10.0 mi WSW 4.6 mph - N/A   Mostly Cloudy
8:15 AM 78.8 °F - 66.4 °F 66% 29.77 in 10.0 mi West 5.8 mph - N/A   Mostly Cloudy
8:35 AM 79.2 °F - 66.7 °F 66% 29.78 in 10.0 mi West 6.9 mph - N/A   Scattered Clouds
8:55 AM 79.7 °F - 68.4 °F 68% 29.78 in 10.0 mi WNW 8.1 mph - N/A   Scattered Clouds
9:15 AM 81.9 °F 85.6 °F 69.8 °F 67% 29.77 in 10.0 mi WNW 9.2 mph - N/A   Clear
9:35 AM 83.8 °F 88.9 °F 71.2 °F 66% 29.77 in 10.0 mi WNW 9.2 mph - N/A   Clear
9:55 AM 85.6 °F 90.4 °F 70.5 °F 60% 29.77 in 10.0 mi WNW 9.2 mph - N/A   Clear
10:15 AM 87.1 °F 92.0 °F 70.0 °F 57% 29.77 in 10.0 mi WNW 13.8 mph 18.4 mph N/A   Clear
10:35 AM 87.1 °F 91.3 °F 68.9 °F 55% 29.77 in 10.0 mi West 11.5 mph - N/A   Clear
10:55 AM 88.3 °F 92.0 °F 68.2 °F 51% 29.77 in 10.0 mi West 12.7 mph - N/A   Clear
11:15 AM 89.8 °F 91.8 °F 65.3 °F 44% 29.77 in 10.0 mi West 12.7 mph 16.1 mph N/A   Clear
11:35 AM 90.0 °F 90.3 °F 61.9 °F 39% 29.76 in 10.0 mi WNW 12.7 mph - N/A   Clear
11:55 AM 91.2 °F 90.8 °F 60.3 °F 35% 29.76 in 10.0 mi WNW 12.7 mph 18.4 mph N/A   Clear
12:15 PM 91.8 °F 91.2 °F 59.5 °F 34% 29.76 in 10.0 mi WSW 11.5 mph - N/A   Clear
12:35 PM 91.8 °F 90.9 °F 58.8 °F 33% 29.75 in 10.0 mi WNW 15.0 mph 21.9 mph N/A   Clear
12:55 PM 92.8 °F 91.7 °F 58.3 °F 31% 29.75 in 10.0 mi WNW 10.4 mph 16.1 mph N/A   Scattered Clouds
1:15 PM 91.9 °F 91.2 °F 58.6 °F 33% 29.74 in 10.0 mi West 13.8 mph - N/A   Scattered Clouds
1:35 PM 91.0 °F 89.7 °F 57.7 °F 32% 29.74 in 10.0 mi West 12.7 mph 18.4 mph N/A   Scattered Clouds
1:55 PM 89.8 °F 88.6 °F 57.7 °F 34% 29.73 in 10.0 mi WNW 12.7 mph 20.7 mph N/A   Scattered Clouds
2:15 PM 89.8 °F 88.9 °F 58.6 °F 35% 29.72 in 10.0 mi WNW 15.0 mph - N/A   Scattered Clouds
2:35 PM 88.5 °F 87.5 °F 58.6 °F 36% 29.71 in 10.0 mi WNW 11.5 mph 18.4 mph N/A   Scattered Clouds
2:55 PM 92.1 °F 91.7 °F 60.1 °F 34% 29.69 in 10.0 mi WNW 16.1 mph 25.3 mph N/A   Scattered Clouds
3:15 PM 92.7 °F 91.8 °F 59.2 °F 32% 29.69 in 10.0 mi West 13.8 mph - N/A   Clear
3:35 PM 93.0 °F 92.0 °F 58.6 °F 31% 29.68 in 10.0 mi WNW 17.3 mph 25.3 mph N/A   Clear
3:55 PM 89.1 °F 88.0 °F 58.3 °F 35% 29.68 in 10.0 mi WNW 13.8 mph 19.6 mph N/A   Mostly Cloudy
4:15 PM 90.5 °F 89.5 °F 58.8 °F 34% 29.67 in 10.0 mi NNW 16.1 mph 19.6 mph N/A   Mostly Cloudy
4:35 PM 91.4 °F 91.0 °F 60.1 °F 35% 29.67 in 10.0 mi NNW 13.8 mph - N/A   Clear
4:55 PM 89.6 °F 89.2 °F 60.1 °F 37% 29.67 in 10.0 mi NW 12.7 mph 17.3 mph N/A   Scattered Clouds
5:15 PM 89.1 °F 88.8 °F 60.4 °F 38% 29.67 in 10.0 mi NW 13.8 mph 19.6 mph N/A   Scattered Clouds
5:35 PM 88.5 °F 88.3 °F 61.0 °F 39% 29.67 in 10.0 mi NNW 12.7 mph 19.6 mph N/A   Scattered Clouds
5:55 PM 88.9 °F 88.5 °F 60.4 °F 38% 29.66 in 10.0 mi NW 12.7 mph 18.4 mph N/A   Scattered Clouds
6:15 PM 88.0 °F 87.9 °F 61.0 °F 40% 29.67 in 10.0 mi WNW 13.8 mph 18.4 mph N/A   Clear
6:35 PM 87.8 °F 85.9 °F 54.9 °F 32% 29.67 in 10.0 mi NW 18.4 mph 23.0 mph N/A   Clear
6:55 PM 86.9 °F 84.9 °F 53.6 °F 32% 29.67 in 10.0 mi NW 18.4 mph - N/A   Clear
7:15 PM 85.5 °F - 51.4 °F 31% 29.68 in 10.0 mi NW 12.7 mph 21.9 mph N/A   Clear
7:35 PM 84.2 °F - 51.6 °F 32% 29.68 in 10.0 mi NW 11.5 mph 20.7 mph N/A   Clear
7:55 PM 82.2 °F 81.3 °F 53.4 °F 37% 29.69 in 7.0 mi NW 8.1 mph - N/A   Clear
8:15 PM 78.6 °F - 56.5 °F 46% 29.69 in 10.0 mi West 4.6 mph - N/A   Clear
8:35 PM 76.6 °F - 58.6 °F 54% 29.69 in 10.0 mi West 4.6 mph - N/A   Clear
8:55 PM 75.0 °F - 58.1 °F 56% 29.69 in 10.0 mi West 4.6 mph - N/A   Clear
9:15 PM 74.5 °F - 58.3 °F 57% 29.69 in 10.0 mi West 5.8 mph - N/A   Clear
9:35 PM 73.4 °F - 59.0 °F 61% 29.69 in 10.0 mi West 5.8 mph - N/A   Clear
9:55 PM 72.5 °F - 60.1 °F 65% 29.69 in 10.0 mi WSW 6.9 mph - N/A   Clear
10:15 PM 72.7 °F - 59.7 °F 64% 29.69 in 10.0 mi WSW 4.6 mph - N/A   Clear
10:35 PM 71.2 °F - 61.0 °F 70% 29.69 in 10.0 mi SW 5.8 mph - N/A   Clear
10:55 PM 70.9 °F - 60.3 °F 69% 29.69 in 10.0 mi SW 5.8 mph - N/A   Clear
11:15 PM 71.6 °F - 59.9 °F 66% 29.68 in 10.0 mi SW 6.9 mph - N/A   Clear
11:35 PM 71.6 °F - 59.9 °F 66% 29.68 in 10.0 mi WSW 5.8 mph - N/A   Scattered Clouds
11:55 PM 71.2 °F - 59.9 °F 67% 29.68 in 10.0 mi WSW 5.8 mph - N/A   Scattered Clouds